Index of /library/deepconv/sample/2008-10-31_yamasita/figdir

[ICO]NameLast modifiedSizeDescription

[PARENTDIR]Parent Directory  -  
[   ]arare-combine.rb2008-11-01 00:17 1.4K 
[IMG]rand_CS135_coolheat_MassTotal.png2008-10-31 10:12 7.6K 
[IMG]rand_CS135_coolheat_CloudMassTotal.png2008-10-31 10:12 7.7K 
[IMG]rand_CS135_coolheat_KineticEnergyTotal.png2008-10-31 10:12 7.9K 
[IMG]rand_CS135_coolheat_Exner_00000.png2008-10-31 10:10 9.1K 
[IMG]rand_CS135_coolheat_VelX_00000.png2008-10-31 10:10 9.2K 
[IMG]rand_CS135_coolheat_SatRatio_00000.png2008-10-31 10:10 9.4K 
[IMG]rand_CS135_coolheat_VelZ_00000.png2008-10-31 10:10 9.4K 
[IMG]rand_CS135_coolheat_Km_00000.png2008-10-31 10:10 9.4K 
[IMG]rand_CS135_coolheat_Exner_00900.png2008-10-31 10:10 9.7K 
[IMG]rand_CS135_coolheat_DensCloud_00000.png2008-10-31 10:10 9.8K 
[IMG]rand_CS135_coolheat_DensCloud_00900.png2008-10-31 10:10 9.9K 
[IMG]rand_CS135_coolheat_DensCloud_01800.png2008-10-31 10:10 9.9K 
[IMG]rand_CS135_coolheat_DensCloud_02700.png2008-10-31 10:10 9.9K 
[IMG]rand_CS135_coolheat_PotTempDist_00000.png2008-10-31 10:10 11K 
[IMG]rand_CS135_coolheat_Exner_01800.png2008-10-31 10:10 11K 
[IMG]rand_CS135_coolheat_SatRatio_00900.png2008-10-31 10:10 11K 
[IMG]rand_CS135_coolheat_PotTempDist_00900.png2008-10-31 10:10 12K 
[IMG]rand_CS135_coolheat_SatRatio_01800.png2008-10-31 10:10 13K 
[IMG]rand_CS135_coolheat_VelZ_00900.png2008-10-31 10:10 13K 
[IMG]rand_CS135_coolheat_Exner_09000.png2008-10-31 10:11 14K 
[IMG]rand_CS135_coolheat_Exner_02700.png2008-10-31 10:11 14K 
[IMG]rand_CS135_coolheat_Exner_08100.png2008-10-31 10:11 14K 
[IMG]rand_CS135_coolheat_Exner_06300.png2008-10-31 10:11 14K 
[IMG]rand_CS135_coolheat_Exner_10800.png2008-10-31 10:11 15K 
[IMG]rand_CS135_coolheat_Exner_07200.png2008-10-31 10:11 15K 
[IMG]rand_CS135_coolheat_Exner_04500.png2008-10-31 10:11 15K 
[IMG]rand_CS135_coolheat_Exner_09900.png2008-10-31 10:11 15K 
[IMG]rand_CS135_coolheat_Exner_16200.png2008-10-31 10:11 15K 
[IMG]rand_CS135_coolheat_Exner_03600.png2008-10-31 10:11 15K 
[IMG]rand_CS135_coolheat_Exner_15300.png2008-10-31 10:11 15K 
[IMG]rand_CS135_coolheat_Exner_05400.png2008-10-31 10:11 15K 
[IMG]rand_CS135_coolheat_Exner_11700.png2008-10-31 10:11 15K 
[IMG]rand_CS135_coolheat_Exner_17100.png2008-10-31 10:11 16K 
[IMG]rand_CS135_coolheat_Exner_14400.png2008-10-31 10:11 16K 
[IMG]rand_CS135_coolheat_PotTempDist_01800.png2008-10-31 10:10 16K 
[IMG]rand_CS135_coolheat_Km_00900.png2008-10-31 10:10 16K 
[IMG]rand_CS135_coolheat_Exner_18000.png2008-10-31 10:11 16K 
[IMG]rand_CS135_coolheat_Exner_33300.png2008-10-31 10:12 16K 
[IMG]rand_CS135_coolheat_Exner_36000.png2008-10-31 10:12 16K 
[IMG]rand_CS135_coolheat_Exner_30600.png2008-10-31 10:12 16K 
[IMG]rand_CS135_coolheat_Exner_28800.png2008-10-31 10:12 16K 
[IMG]rand_CS135_coolheat_Exner_41400.png2008-10-31 10:12 16K 
[IMG]rand_CS135_coolheat_Exner_19800.png2008-10-31 10:11 16K 
[IMG]rand_CS135_coolheat_Exner_27000.png2008-10-31 10:12 16K 
[IMG]rand_CS135_coolheat_Exner_18900.png2008-10-31 10:11 16K 
[IMG]rand_CS135_coolheat_Exner_20700.png2008-10-31 10:11 16K 
[IMG]rand_CS135_coolheat_Exner_21600.png2008-10-31 10:11 16K 
[IMG]rand_CS135_coolheat_Exner_34200.png2008-10-31 10:12 16K 
[IMG]rand_CS135_coolheat_Exner_40500.png2008-10-31 10:12 16K 
[IMG]rand_CS135_coolheat_Exner_22500.png2008-10-31 10:11 16K 
[IMG]rand_CS135_coolheat_Exner_24300.png2008-10-31 10:11 16K 
[IMG]rand_CS135_coolheat_Exner_25200.png2008-10-31 10:12 16K 
[IMG]rand_CS135_coolheat_Exner_43200.png2008-10-31 10:12 16K 
[IMG]rand_CS135_coolheat_Exner_27900.png2008-10-31 10:12 16K 
[IMG]rand_CS135_coolheat_Exner_29700.png2008-10-31 10:12 16K 
[IMG]rand_CS135_coolheat_Exner_42300.png2008-10-31 10:12 16K 
[IMG]rand_CS135_coolheat_Exner_26100.png2008-10-31 10:12 16K 
[IMG]rand_CS135_coolheat_Exner_23400.png2008-10-31 10:11 16K 
[IMG]rand_CS135_coolheat_Exner_32400.png2008-10-31 10:12 16K 
[IMG]rand_CS135_coolheat_Exner_31500.png2008-10-31 10:12 16K 
[IMG]rand_CS135_coolheat_Exner_35100.png2008-10-31 10:12 16K 
[IMG]rand_CS135_coolheat_Exner_36900.png2008-10-31 10:12 16K 
[IMG]rand_CS135_coolheat_Exner_37800.png2008-10-31 10:12 16K 
[IMG]rand_CS135_coolheat_Exner_39600.png2008-10-31 10:12 16K 
[IMG]rand_CS135_coolheat_Exner_38700.png2008-10-31 10:12 16K 
[IMG]rand_CS135_coolheat_Exner_13500.png2008-10-31 10:11 17K 
[IMG]rand_CS135_coolheat_Exner_12600.png2008-10-31 10:11 17K 
[IMG]rand_CS135_coolheat_VelX_00900.png2008-10-31 10:10 18K 
[IMG]rand_CS135_coolheat_VelZ_01800.png2008-10-31 10:10 19K 
[IMG]rand_CS135_coolheat_SatRatio_02700.png2008-10-31 10:10 19K 
[IMG]rand_CS135_coolheat_SatRatio_03600.png2008-10-31 10:11 20K 
[IMG]rand_CS135_coolheat_VelX_01800.png2008-10-31 10:10 20K 
[IMG]rand_CS135_coolheat_Km_01800.png2008-10-31 10:10 21K 
[IMG]rand_CS135_coolheat_DensCloud_03600.png2008-10-31 10:11 21K 
[IMG]rand_CS135_coolheat_DensCloud_04500.png2008-10-31 10:11 22K 
[IMG]rand_CS135_coolheat_PotTempDist_02700.png2008-10-31 10:10 23K 
[IMG]rand_CS135_coolheat_DensCloud_05400.png2008-10-31 10:11 27K 
[IMG]rand_CS135_coolheat_SatRatio_05400.png2008-10-31 10:11 27K 
[IMG]rand_CS135_coolheat_SatRatio_04500.png2008-10-31 10:11 27K 
[IMG]rand_CS135_coolheat_Km_02700.png2008-10-31 10:11 28K 
[IMG]rand_CS135_coolheat_SatRatio_06300.png2008-10-31 10:11 28K 
[IMG]rand_CS135_coolheat_SatRatio_09000.png2008-10-31 10:11 29K 
[IMG]rand_CS135_coolheat_DensCloud_06300.png2008-10-31 10:11 31K 
[IMG]rand_CS135_coolheat_SatRatio_07200.png2008-10-31 10:11 31K 
[IMG]rand_CS135_coolheat_PotTempDist_03600.png2008-10-31 10:11 31K 
[IMG]rand_CS135_coolheat_SatRatio_08100.png2008-10-31 10:11 32K 
[IMG]rand_CS135_coolheat_DensCloud_07200.png2008-10-31 10:11 32K 
[IMG]rand_CS135_coolheat_SatRatio_09900.png2008-10-31 10:11 32K 
[IMG]rand_CS135_coolheat_VelZ_02700.png2008-10-31 10:11 32K 
[IMG]rand_CS135_coolheat_VelX_02700.png2008-10-31 10:11 32K 
[IMG]rand_CS135_coolheat_SatRatio_10800.png2008-10-31 10:11 33K 
[IMG]rand_CS135_coolheat_Km_03600.png2008-10-31 10:11 33K 
[IMG]rand_CS135_coolheat_SatRatio_11700.png2008-10-31 10:11 33K 
[IMG]rand_CS135_coolheat_SatRatio_15300.png2008-10-31 10:11 33K 
[IMG]rand_CS135_coolheat_SatRatio_13500.png2008-10-31 10:11 33K 
[IMG]rand_CS135_coolheat_SatRatio_12600.png2008-10-31 10:11 34K 
[IMG]rand_CS135_coolheat_PotTempDist_04500.png2008-10-31 10:11 34K 
[IMG]rand_CS135_coolheat_DensCloud_08100.png2008-10-31 10:11 34K 
[IMG]rand_CS135_coolheat_Km_05400.png2008-10-31 10:11 34K 
[IMG]rand_CS135_coolheat_DensCloud_09000.png2008-10-31 10:11 34K 
[IMG]rand_CS135_coolheat_Km_08100.png2008-10-31 10:11 34K 
[IMG]rand_CS135_coolheat_SatRatio_16200.png2008-10-31 10:11 34K 
[IMG]rand_CS135_coolheat_Km_06300.png2008-10-31 10:11 35K 
[IMG]rand_CS135_coolheat_DensCloud_09900.png2008-10-31 10:11 35K 
[IMG]rand_CS135_coolheat_SatRatio_17100.png2008-10-31 10:11 35K 
[IMG]rand_CS135_coolheat_SatRatio_18000.png2008-10-31 10:11 35K 
[IMG]rand_CS135_coolheat_SatRatio_41400.png2008-10-31 10:12 35K 
[IMG]rand_CS135_coolheat_SatRatio_30600.png2008-10-31 10:12 35K 
[IMG]rand_CS135_coolheat_SatRatio_31500.png2008-10-31 10:12 35K 
[IMG]rand_CS135_coolheat_SatRatio_36000.png2008-10-31 10:12 35K 
[IMG]rand_CS135_coolheat_SatRatio_21600.png2008-10-31 10:11 35K 
[IMG]rand_CS135_coolheat_SatRatio_27000.png2008-10-31 10:12 35K 
[IMG]rand_CS135_coolheat_SatRatio_33300.png2008-10-31 10:12 35K 
[IMG]rand_CS135_coolheat_SatRatio_35100.png2008-10-31 10:12 35K 
[IMG]rand_CS135_coolheat_SatRatio_19800.png2008-10-31 10:11 35K 
[IMG]rand_CS135_coolheat_SatRatio_25200.png2008-10-31 10:12 35K 
[IMG]rand_CS135_coolheat_SatRatio_28800.png2008-10-31 10:12 35K 
[IMG]rand_CS135_coolheat_SatRatio_38700.png2008-10-31 10:12 35K 
[IMG]rand_CS135_coolheat_SatRatio_43200.png2008-10-31 10:12 35K 
[IMG]rand_CS135_coolheat_SatRatio_36900.png2008-10-31 10:12 35K 
[IMG]rand_CS135_coolheat_SatRatio_39600.png2008-10-31 10:12 35K 
[IMG]rand_CS135_coolheat_SatRatio_40500.png2008-10-31 10:12 35K 
[IMG]rand_CS135_coolheat_SatRatio_42300.png2008-10-31 10:12 35K 
[IMG]rand_CS135_coolheat_SatRatio_18900.png2008-10-31 10:11 35K 
[IMG]rand_CS135_coolheat_SatRatio_22500.png2008-10-31 10:11 35K 
[IMG]rand_CS135_coolheat_SatRatio_37800.png2008-10-31 10:12 35K 
[IMG]rand_CS135_coolheat_SatRatio_26100.png2008-10-31 10:12 35K 
[IMG]rand_CS135_coolheat_SatRatio_34200.png2008-10-31 10:12 35K 
[IMG]rand_CS135_coolheat_SatRatio_20700.png2008-10-31 10:11 35K 
[IMG]rand_CS135_coolheat_SatRatio_29700.png2008-10-31 10:12 35K 
[IMG]rand_CS135_coolheat_SatRatio_24300.png2008-10-31 10:11 35K 
[IMG]rand_CS135_coolheat_SatRatio_32400.png2008-10-31 10:12 35K 
[IMG]rand_CS135_coolheat_SatRatio_23400.png2008-10-31 10:11 35K 
[IMG]rand_CS135_coolheat_SatRatio_27900.png2008-10-31 10:12 35K 
[IMG]rand_CS135_coolheat_Km_07200.png2008-10-31 10:11 35K 
[IMG]rand_CS135_coolheat_SatRatio_14400.png2008-10-31 10:11 35K 
[IMG]rand_CS135_coolheat_DensCloud_10800.png2008-10-31 10:11 35K 
[IMG]rand_CS135_coolheat_Km_04500.png2008-10-31 10:11 36K 
[IMG]rand_CS135_coolheat_Km_09000.png2008-10-31 10:11 36K 
[IMG]rand_CS135_coolheat_Km_12600.png2008-10-31 10:11 36K 
[IMG]rand_CS135_coolheat_Km_13500.png2008-10-31 10:11 36K 
[IMG]rand_CS135_coolheat_Km_11700.png2008-10-31 10:11 36K 
[IMG]rand_CS135_coolheat_Km_10800.png2008-10-31 10:11 36K 
[IMG]rand_CS135_coolheat_Km_09900.png2008-10-31 10:11 37K 
[IMG]rand_CS135_coolheat_DensCloud_11700.png2008-10-31 10:11 37K 
[IMG]rand_CS135_coolheat_PotTempDist_05400.png2008-10-31 10:11 37K 
[IMG]rand_CS135_coolheat_Km_14400.png2008-10-31 10:11 38K 
[IMG]rand_CS135_coolheat_Km_16200.png2008-10-31 10:11 38K 
[IMG]rand_CS135_coolheat_Km_36000.png2008-10-31 10:12 38K 
[IMG]rand_CS135_coolheat_Km_33300.png2008-10-31 10:12 38K 
[IMG]rand_CS135_coolheat_Km_21600.png2008-10-31 10:11 38K 
[IMG]rand_CS135_coolheat_Km_26100.png2008-10-31 10:12 38K 
[IMG]rand_CS135_coolheat_Km_18000.png2008-10-31 10:11 38K 
[IMG]rand_CS135_coolheat_Km_19800.png2008-10-31 10:11 38K 
[IMG]rand_CS135_coolheat_Km_30600.png2008-10-31 10:12 38K 
[IMG]rand_CS135_coolheat_Km_20700.png2008-10-31 10:11 38K 
[IMG]rand_CS135_coolheat_Km_25200.png2008-10-31 10:12 38K 
[IMG]rand_CS135_coolheat_Km_27000.png2008-10-31 10:12 38K 
[IMG]rand_CS135_coolheat_Km_18900.png2008-10-31 10:11 38K 
[IMG]rand_CS135_coolheat_Km_28800.png2008-10-31 10:12 38K 
[IMG]rand_CS135_coolheat_Km_34200.png2008-10-31 10:12 38K 
[IMG]rand_CS135_coolheat_Km_22500.png2008-10-31 10:11 38K 
[IMG]rand_CS135_coolheat_Km_24300.png2008-10-31 10:11 38K 
[IMG]rand_CS135_coolheat_Km_39600.png2008-10-31 10:12 38K 
[IMG]rand_CS135_coolheat_Km_36900.png2008-10-31 10:12 38K 
[IMG]rand_CS135_coolheat_Km_35100.png2008-10-31 10:12 38K 
[IMG]rand_CS135_coolheat_Km_41400.png2008-10-31 10:12 38K 
[IMG]rand_CS135_coolheat_Km_27900.png2008-10-31 10:12 38K 
[IMG]rand_CS135_coolheat_Km_31500.png2008-10-31 10:12 38K 
[IMG]rand_CS135_coolheat_Km_32400.png2008-10-31 10:12 38K 
[IMG]rand_CS135_coolheat_Km_40500.png2008-10-31 10:12 38K 
[IMG]rand_CS135_coolheat_Km_23400.png2008-10-31 10:11 38K 
[IMG]rand_CS135_coolheat_Km_38700.png2008-10-31 10:12 38K 
[IMG]rand_CS135_coolheat_Km_37800.png2008-10-31 10:12 38K 
[IMG]rand_CS135_coolheat_Km_29700.png2008-10-31 10:12 38K 
[IMG]rand_CS135_coolheat_Km_43200.png2008-10-31 10:12 38K 
[IMG]rand_CS135_coolheat_Km_42300.png2008-10-31 10:12 38K 
[IMG]rand_CS135_coolheat_Km_17100.png2008-10-31 10:11 38K 
[IMG]rand_CS135_coolheat_Km_15300.png2008-10-31 10:11 38K 
[IMG]rand_CS135_coolheat_DensCloud_12600.png2008-10-31 10:11 38K 
[IMG]rand_CS135_coolheat_DensCloud_15300.png2008-10-31 10:11 40K 
[IMG]rand_CS135_coolheat_DensCloud_14400.png2008-10-31 10:11 40K 
[IMG]rand_CS135_coolheat_VelZ_03600.png2008-10-31 10:11 40K 
[IMG]rand_CS135_coolheat_DensCloud_16200.png2008-10-31 10:11 40K 
[IMG]rand_CS135_coolheat_DensCloud_13500.png2008-10-31 10:11 40K 
[IMG]rand_CS135_coolheat_DensCloud_17100.png2008-10-31 10:11 40K 
[IMG]rand_CS135_coolheat_PotTempDist_08100.png2008-10-31 10:11 40K 
[IMG]rand_CS135_coolheat_DensCloud_18000.png2008-10-31 10:11 41K 
[IMG]rand_CS135_coolheat_DensCloud_33300.png2008-10-31 10:12 41K 
[IMG]rand_CS135_coolheat_DensCloud_41400.png2008-10-31 10:12 41K 
[IMG]rand_CS135_coolheat_DensCloud_23400.png2008-10-31 10:11 41K 
[IMG]rand_CS135_coolheat_DensCloud_36000.png2008-10-31 10:12 41K 
[IMG]rand_CS135_coolheat_DensCloud_19800.png2008-10-31 10:11 41K 
[IMG]rand_CS135_coolheat_DensCloud_22500.png2008-10-31 10:11 41K 
[IMG]rand_CS135_coolheat_DensCloud_32400.png2008-10-31 10:12 41K 
[IMG]rand_CS135_coolheat_DensCloud_21600.png2008-10-31 10:11 41K 
[IMG]rand_CS135_coolheat_DensCloud_35100.png2008-10-31 10:12 41K 
[IMG]rand_CS135_coolheat_DensCloud_25200.png2008-10-31 10:12 41K 
[IMG]rand_CS135_coolheat_DensCloud_31500.png2008-10-31 10:12 41K 
[IMG]rand_CS135_coolheat_DensCloud_30600.png2008-10-31 10:12 41K 
[IMG]rand_CS135_coolheat_DensCloud_39600.png2008-10-31 10:12 41K 
[IMG]rand_CS135_coolheat_DensCloud_34200.png2008-10-31 10:12 41K 
[IMG]rand_CS135_coolheat_DensCloud_36900.png2008-10-31 10:12 41K 
[IMG]rand_CS135_coolheat_DensCloud_24300.png2008-10-31 10:11 41K 
[IMG]rand_CS135_coolheat_DensCloud_27000.png2008-10-31 10:12 41K 
[IMG]rand_CS135_coolheat_DensCloud_43200.png2008-10-31 10:12 41K 
[IMG]rand_CS135_coolheat_DensCloud_18900.png2008-10-31 10:11 41K 
[IMG]rand_CS135_coolheat_DensCloud_42300.png2008-10-31 10:12 41K 
[IMG]rand_CS135_coolheat_DensCloud_38700.png2008-10-31 10:12 41K 
[IMG]rand_CS135_coolheat_DensCloud_28800.png2008-10-31 10:12 41K 
[IMG]rand_CS135_coolheat_DensCloud_29700.png2008-10-31 10:12 41K 
[IMG]rand_CS135_coolheat_DensCloud_20700.png2008-10-31 10:11 41K 
[IMG]rand_CS135_coolheat_DensCloud_26100.png2008-10-31 10:12 41K 
[IMG]rand_CS135_coolheat_DensCloud_27900.png2008-10-31 10:12 41K 
[IMG]rand_CS135_coolheat_DensCloud_37800.png2008-10-31 10:12 41K 
[IMG]rand_CS135_coolheat_DensCloud_40500.png2008-10-31 10:12 41K 
[IMG]rand_CS135_coolheat_PotTempDist_07200.png2008-10-31 10:11 41K 
[IMG]rand_CS135_coolheat_VelX_03600.png2008-10-31 10:11 42K 
[IMG]rand_CS135_coolheat_PotTempDist_06300.png2008-10-31 10:11 42K 
[IMG]rand_CS135_coolheat_VelZ_04500.png2008-10-31 10:11 42K 
[IMG]rand_CS135_coolheat_VelZ_05400.png2008-10-31 10:11 43K 
[IMG]rand_CS135_coolheat_PotTempDist_13500.png2008-10-31 10:11 43K 
[IMG]rand_CS135_coolheat_PotTempDist_09000.png2008-10-31 10:11 44K 
[IMG]rand_CS135_coolheat_PotTempDist_12600.png2008-10-31 10:11 45K 
[IMG]rand_CS135_coolheat_VelX_04500.png2008-10-31 10:11 46K 
[IMG]rand_CS135_coolheat_VelZ_06300.png2008-10-31 10:11 46K 
[IMG]rand_CS135_coolheat_PotTempDist_09900.png2008-10-31 10:11 47K 
[IMG]rand_CS135_coolheat_VelX_05400.png2008-10-31 10:11 47K 
[IMG]rand_CS135_coolheat_PotTempDist_14400.png2008-10-31 10:11 47K 
[IMG]rand_CS135_coolheat_PotTempDist_10800.png2008-10-31 10:11 48K 
[IMG]rand_CS135_coolheat_PotTempDist_11700.png2008-10-31 10:11 48K 
[IMG]rand_CS135_coolheat_VelZ_07200.png2008-10-31 10:11 49K 
[IMG]rand_CS135_coolheat_PotTempDist_15300.png2008-10-31 10:11 50K 
[IMG]rand_CS135_coolheat_PotTempDist_16200.png2008-10-31 10:11 50K 
[IMG]rand_CS135_coolheat_VelX_06300.png2008-10-31 10:11 50K 
[IMG]rand_CS135_coolheat_PotTempDist_17100.png2008-10-31 10:11 51K 
[IMG]rand_CS135_coolheat_PotTempDist_18000.png2008-10-31 10:11 51K 
[IMG]rand_CS135_coolheat_PotTempDist_36000.png2008-10-31 10:12 51K 
[IMG]rand_CS135_coolheat_PotTempDist_30600.png2008-10-31 10:12 51K 
[IMG]rand_CS135_coolheat_PotTempDist_33300.png2008-10-31 10:12 51K 
[IMG]rand_CS135_coolheat_PotTempDist_18900.png2008-10-31 10:11 51K 
[IMG]rand_CS135_coolheat_PotTempDist_41400.png2008-10-31 10:12 51K 
[IMG]rand_CS135_coolheat_PotTempDist_19800.png2008-10-31 10:11 51K 
[IMG]rand_CS135_coolheat_PotTempDist_21600.png2008-10-31 10:11 51K 
[IMG]rand_CS135_coolheat_PotTempDist_25200.png2008-10-31 10:12 51K 
[IMG]rand_CS135_coolheat_PotTempDist_39600.png2008-10-31 10:12 51K 
[IMG]rand_CS135_coolheat_PotTempDist_28800.png2008-10-31 10:12 51K 
[IMG]rand_CS135_coolheat_PotTempDist_31500.png2008-10-31 10:12 51K 
[IMG]rand_CS135_coolheat_PotTempDist_36900.png2008-10-31 10:12 51K 
[IMG]rand_CS135_coolheat_PotTempDist_22500.png2008-10-31 10:11 51K 
[IMG]rand_CS135_coolheat_PotTempDist_32400.png2008-10-31 10:12 51K 
[IMG]rand_CS135_coolheat_PotTempDist_35100.png2008-10-31 10:12 51K 
[IMG]rand_CS135_coolheat_PotTempDist_37800.png2008-10-31 10:12 51K 
[IMG]rand_CS135_coolheat_PotTempDist_40500.png2008-10-31 10:12 51K 
[IMG]rand_CS135_coolheat_PotTempDist_27000.png2008-10-31 10:12 51K 
[IMG]rand_CS135_coolheat_PotTempDist_34200.png2008-10-31 10:12 51K 
[IMG]rand_CS135_coolheat_PotTempDist_38700.png2008-10-31 10:12 51K 
[IMG]rand_CS135_coolheat_PotTempDist_20700.png2008-10-31 10:11 51K 
[IMG]rand_CS135_coolheat_PotTempDist_23400.png2008-10-31 10:11 51K 
[IMG]rand_CS135_coolheat_PotTempDist_42300.png2008-10-31 10:12 51K 
[IMG]rand_CS135_coolheat_PotTempDist_26100.png2008-10-31 10:12 51K 
[IMG]rand_CS135_coolheat_PotTempDist_27900.png2008-10-31 10:12 51K 
[IMG]rand_CS135_coolheat_PotTempDist_43200.png2008-10-31 10:12 51K 
[IMG]rand_CS135_coolheat_PotTempDist_29700.png2008-10-31 10:12 51K 
[IMG]rand_CS135_coolheat_PotTempDist_24300.png2008-10-31 10:11 51K 
[IMG]rand_CS135_coolheat_VelZ_08100.png2008-10-31 10:11 52K 
[IMG]rand_CS135_coolheat_VelX_07200.png2008-10-31 10:11 52K 
[IMG]rand_CS135_coolheat_VelZ_09000.png2008-10-31 10:11 52K 
[IMG]rand_CS135_coolheat_VelX_08100.png2008-10-31 10:11 53K 
[IMG]rand_CS135_coolheat_VelZ_09900.png2008-10-31 10:11 53K 
[IMG]rand_CS135_coolheat_VelX_09000.png2008-10-31 10:11 54K 
[IMG]rand_CS135_coolheat_VelZ_12600.png2008-10-31 10:11 54K 
[IMG]rand_CS135_coolheat_VelZ_13500.png2008-10-31 10:11 54K 
[IMG]rand_CS135_coolheat_VelX_09900.png2008-10-31 10:11 55K 
[IMG]rand_CS135_coolheat_VelZ_10800.png2008-10-31 10:11 55K 
[IMG]rand_CS135_coolheat_VelX_10800.png2008-10-31 10:11 55K 
[IMG]rand_CS135_coolheat_VelZ_11700.png2008-10-31 10:11 55K 
[IMG]rand_CS135_coolheat_VelZ_14400.png2008-10-31 10:11 56K 
[IMG]rand_CS135_coolheat_VelZ_15300.png2008-10-31 10:11 57K 
[IMG]rand_CS135_coolheat_VelZ_17100.png2008-10-31 10:11 57K 
[IMG]rand_CS135_coolheat_VelZ_16200.png2008-10-31 10:11 58K 
[IMG]rand_CS135_coolheat_VelX_13500.png2008-10-31 10:11 58K 
[IMG]rand_CS135_coolheat_VelX_11700.png2008-10-31 10:11 58K 
[IMG]rand_CS135_coolheat_VelZ_36000.png2008-10-31 10:12 59K 
[IMG]rand_CS135_coolheat_VelZ_25200.png2008-10-31 10:12 59K 
[IMG]rand_CS135_coolheat_VelZ_30600.png2008-10-31 10:12 59K 
[IMG]rand_CS135_coolheat_VelZ_28800.png2008-10-31 10:12 59K 
[IMG]rand_CS135_coolheat_VelZ_33300.png2008-10-31 10:12 59K 
[IMG]rand_CS135_coolheat_VelZ_23400.png2008-10-31 10:11 59K 
[IMG]rand_CS135_coolheat_VelZ_21600.png2008-10-31 10:11 59K 
[IMG]rand_CS135_coolheat_VelZ_18000.png2008-10-31 10:11 59K 
[IMG]rand_CS135_coolheat_VelZ_18900.png2008-10-31 10:11 59K 
[IMG]rand_CS135_coolheat_VelZ_32400.png2008-10-31 10:12 59K 
[IMG]rand_CS135_coolheat_VelZ_19800.png2008-10-31 10:11 59K 
[IMG]rand_CS135_coolheat_VelZ_24300.png2008-10-31 10:11 59K 
[IMG]rand_CS135_coolheat_VelZ_39600.png2008-10-31 10:12 59K 
[IMG]rand_CS135_coolheat_VelZ_41400.png2008-10-31 10:12 59K 
[IMG]rand_CS135_coolheat_VelZ_22500.png2008-10-31 10:11 59K 
[IMG]rand_CS135_coolheat_VelZ_26100.png2008-10-31 10:12 59K 
[IMG]rand_CS135_coolheat_VelZ_34200.png2008-10-31 10:12 59K 
[IMG]rand_CS135_coolheat_VelZ_35100.png2008-10-31 10:12 59K 
[IMG]rand_CS135_coolheat_VelZ_42300.png2008-10-31 10:12 59K 
[IMG]rand_CS135_coolheat_VelZ_27000.png2008-10-31 10:12 59K 
[IMG]rand_CS135_coolheat_VelZ_31500.png2008-10-31 10:12 59K 
[IMG]rand_CS135_coolheat_VelZ_37800.png2008-10-31 10:12 59K 
[IMG]rand_CS135_coolheat_VelZ_40500.png2008-10-31 10:12 59K 
[IMG]rand_CS135_coolheat_VelZ_43200.png2008-10-31 10:12 59K 
[IMG]rand_CS135_coolheat_VelZ_36900.png2008-10-31 10:12 59K 
[IMG]rand_CS135_coolheat_VelZ_29700.png2008-10-31 10:12 59K 
[IMG]rand_CS135_coolheat_VelZ_38700.png2008-10-31 10:12 59K 
[IMG]rand_CS135_coolheat_VelZ_20700.png2008-10-31 10:11 59K 
[IMG]rand_CS135_coolheat_VelZ_27900.png2008-10-31 10:12 59K 
[IMG]rand_CS135_coolheat_VelX_12600.png2008-10-31 10:11 59K 
[IMG]rand_CS135_coolheat_VelX_14400.png2008-10-31 10:11 60K 
[IMG]rand_CS135_coolheat_VelX_15300.png2008-10-31 10:11 60K 
[IMG]rand_CS135_coolheat_VelX_16200.png2008-10-31 10:11 61K 
[IMG]rand_CS135_coolheat_VelX_17100.png2008-10-31 10:11 61K 
[IMG]rand_CS135_coolheat_VelX_36000.png2008-10-31 10:12 61K 
[IMG]rand_CS135_coolheat_VelX_25200.png2008-10-31 10:12 61K 
[IMG]rand_CS135_coolheat_VelX_21600.png2008-10-31 10:11 61K 
[IMG]rand_CS135_coolheat_VelX_18000.png2008-10-31 10:11 61K 
[IMG]rand_CS135_coolheat_VelX_30600.png2008-10-31 10:12 61K 
[IMG]rand_CS135_coolheat_VelX_41400.png2008-10-31 10:12 61K 
[IMG]rand_CS135_coolheat_VelX_28800.png2008-10-31 10:12 61K 
[IMG]rand_CS135_coolheat_VelX_32400.png2008-10-31 10:12 61K 
[IMG]rand_CS135_coolheat_VelX_33300.png2008-10-31 10:12 61K 
[IMG]rand_CS135_coolheat_VelX_18900.png2008-10-31 10:11 61K 
[IMG]rand_CS135_coolheat_VelX_27000.png2008-10-31 10:12 61K 
[IMG]rand_CS135_coolheat_VelX_39600.png2008-10-31 10:12 61K 
[IMG]rand_CS135_coolheat_VelX_23400.png2008-10-31 10:11 62K 
[IMG]rand_CS135_coolheat_VelX_26100.png2008-10-31 10:12 62K 
[IMG]rand_CS135_coolheat_VelX_35100.png2008-10-31 10:12 62K 
[IMG]rand_CS135_coolheat_VelX_36900.png2008-10-31 10:12 62K 
[IMG]rand_CS135_coolheat_VelX_19800.png2008-10-31 10:11 62K 
[IMG]rand_CS135_coolheat_VelX_20700.png2008-10-31 10:11 62K 
[IMG]rand_CS135_coolheat_VelX_22500.png2008-10-31 10:11 62K 
[IMG]rand_CS135_coolheat_VelX_31500.png2008-10-31 10:12 62K 
[IMG]rand_CS135_coolheat_VelX_37800.png2008-10-31 10:12 62K 
[IMG]rand_CS135_coolheat_VelX_24300.png2008-10-31 10:11 62K 
[IMG]rand_CS135_coolheat_VelX_34200.png2008-10-31 10:12 62K 
[IMG]rand_CS135_coolheat_VelX_38700.png2008-10-31 10:12 62K 
[IMG]rand_CS135_coolheat_VelX_27900.png2008-10-31 10:12 62K 
[IMG]rand_CS135_coolheat_VelX_42300.png2008-10-31 10:12 62K 
[IMG]rand_CS135_coolheat_VelX_29700.png2008-10-31 10:12 62K 
[IMG]rand_CS135_coolheat_VelX_40500.png2008-10-31 10:12 62K 
[IMG]rand_CS135_coolheat_VelX_43200.png2008-10-31 10:12 62K 
[IMG]rand_CS135_coolheat-Anim_00000.png2008-11-01 00:19 136K 
[IMG]rand_CS135_coolheat-Anim_00900.png2008-11-01 00:19 169K 
[IMG]rand_CS135_coolheat-Anim_01800.png2008-11-01 00:19 191K 
[IMG]tmp2.png2008-11-01 00:22 196K 
[IMG]rand_CS135_coolheat-Anim_02700.png2008-11-01 00:19 238K 
[IMG]tmp1.png2008-11-01 00:22 256K 
[IMG]rand_CS135_coolheat-Anim_04500.png2008-11-01 00:20 323K 
[IMG]rand_CS135_coolheat-Anim_03600.png2008-11-01 00:19 324K 
[IMG]rand_CS135_coolheat-Anim_05400.png2008-11-01 00:20 360K 
[IMG]rand_CS135_coolheat-Anim_06300.png2008-11-01 00:20 394K 
[IMG]rand_CS135_coolheat-Anim_07200.png2008-11-01 00:20 398K 
[IMG]rand_CS135_coolheat-Anim_08100.png2008-11-01 00:20 410K 
[IMG]rand_CS135_coolheat-Anim_09000.png2008-11-01 00:20 416K 
[IMG]rand_CS135_coolheat-Anim_09900.png2008-11-01 00:20 420K 
[IMG]rand_CS135_coolheat-Anim_10800.png2008-11-01 00:20 431K 
[IMG]rand_CS135_coolheat-Anim_11700.png2008-11-01 00:20 438K 
[IMG]rand_CS135_coolheat-Anim_13500.png2008-11-01 00:20 439K 
[IMG]rand_CS135_coolheat-Anim_12600.png2008-11-01 00:20 448K 
[IMG]rand_CS135_coolheat-Anim_16200.png2008-11-01 00:20 449K 
[IMG]rand_CS135_coolheat-Anim_14400.png2008-11-01 00:20 449K 
[IMG]rand_CS135_coolheat-Anim_15300.png2008-11-01 00:20 451K 
[IMG]rand_CS135_coolheat-Anim_17100.png2008-11-01 00:20 451K 
[IMG]rand_CS135_coolheat-Anim_33300.png2008-11-01 00:22 452K 
[IMG]rand_CS135_coolheat-Anim_18000.png2008-11-01 00:21 452K 
[IMG]rand_CS135_coolheat-Anim_36000.png2008-11-01 00:22 452K 
[IMG]rand_CS135_coolheat-Anim_30600.png2008-11-01 00:21 452K 
[IMG]rand_CS135_coolheat-Anim_31500.png2008-11-01 00:22 452K 
[IMG]rand_CS135_coolheat-Anim_36900.png2008-11-01 00:22 452K 
[IMG]rand_CS135_coolheat-Anim_41400.png2008-11-01 00:22 452K 
[IMG]rand_CS135_coolheat-Anim_39600.png2008-11-01 00:22 452K 
[IMG]rand_CS135_coolheat-Anim_19800.png2008-11-01 00:21 452K 
[IMG]rand_CS135_coolheat-Anim_42300.png2008-11-01 00:22 452K 
[IMG]rand_CS135_coolheat-Anim_40500.png2008-11-01 00:22 452K 
[IMG]rand_CS135_coolheat-Anim_43200.png2008-11-01 00:22 452K 
[IMG]rand_CS135_coolheat-Anim_44100.png2008-11-01 00:22 452K 
[IMG]rand_CS135_coolheat-Anim_21600.png2008-11-01 00:21 452K 
[IMG]rand_CS135_coolheat-Anim_27000.png2008-11-01 00:21 452K 
[IMG]rand_CS135_coolheat-Anim_26100.png2008-11-01 00:21 452K 
[IMG]rand_CS135_coolheat-Anim_18900.png2008-11-01 00:21 452K 
[IMG]rand_CS135_coolheat-Anim_24300.png2008-11-01 00:21 452K 
[IMG]rand_CS135_coolheat-Anim_35100.png2008-11-01 00:22 452K 
[IMG]rand_CS135_coolheat-Anim_34200.png2008-11-01 00:22 452K 
[IMG]rand_CS135_coolheat-Anim_20700.png2008-11-01 00:21 452K 
[IMG]rand_CS135_coolheat-Anim_23400.png2008-11-01 00:21 452K 
[IMG]rand_CS135_coolheat-Anim_27900.png2008-11-01 00:21 452K 
[IMG]rand_CS135_coolheat-Anim_38700.png2008-11-01 00:22 452K 
[IMG]rand_CS135_coolheat-Anim_29700.png2008-11-01 00:21 452K 
[IMG]rand_CS135_coolheat-Anim_32400.png2008-11-01 00:22 452K 
[IMG]rand_CS135_coolheat-Anim_22500.png2008-11-01 00:21 452K 
[IMG]rand_CS135_coolheat-Anim_25200.png2008-11-01 00:21 452K 
[IMG]rand_CS135_coolheat-Anim_37800.png2008-11-01 00:22 452K 
[IMG]rand_CS135_coolheat-Anim_28800.png2008-11-01 00:21 452K 
[IMG]anim-combination.gif2008-11-01 00:27 8.6M 

Apache/2.4.25 (Debian) Phusion_Passenger/5.0.30 OpenSSL/1.0.2u Server at dennou-k.gfd-dennou.org Port 443